Tracking 30120 objects as of 6-Feb-2025
HD Live streaming from Space Station
objects crossing your sky now

PEGASUS DEB

Track PEGASUS DEB now!
10-day predictions


NORAD ID: 24126
Int'l Code: 1994-029FZ
Perigee: 573.0 km
Apogee: 994.7 km
Inclination: 81.8 °
Period: 100.4 minutes
Semi major axis: 7154 km
RCS: 0.0531 m2 (small)
Launch date: May 19, 1994
Source: United States (US)
Launch site: AIR FORCE WESTERN TEST RANGE (AFWTR)

Note: This is SATELLITE DEBRIS
Your satellite tracking list
Your tracking list is empty




NASA's NSSDC Master Catalog

Two Line Element Set (TLE):
1 24126U 94029FZ  25036.92398644  .00014043  00000-0  30383-2 0  9991
2 24126  81.8012  98.1600 0294717 228.7890 307.3848 14.34505493482596
Source of the keplerian elements: AFSPC